,,Stat5,,Stat1,,Stat2,,Stat3,,Stat4,,Wind1,,Wind1,
time,status,PA1M_AVG,status,PR1M_SUM,status,RH1M_AVG,status,SR1M_AVG,status,TA1M_AVG,status,W1dAve1m,status,W1sAve1m,
2002-01-05, 00:00:00,VALID,919.635,VALID,0,VALID,84.4129,VALID,-0.0339617,VALID,20.2141,VALID,126,VALID,1.51234,
2002-01-05, 00:01:00,VALID,919.624,VALID,0,VALID,84.1192,VALID,-0.0509425,VALID,20.2462,VALID,122,VALID,2.54598,
2002-01-05, 00:02:00,VALID,919.594,VALID,0,VALID,83.4885,VALID,-0.0849042,VALID,20.3396,VALID,83,VALID,2.67045,
2002-01-05, 00:03:00,VALID,919.582,VALID,0,VALID,83.135,VALID,-0.0339617,VALID,20.4393,VALID,120,VALID,1.47122,
2002-01-05, 00:04:00,VALID,919.597,VALID,0,VALID,82.8514,VALID,-0.0339617,VALID,20.456,VALID,80,VALID,2.00246,
2002-01-05, 00:05:00,VALID,919.582,VALID,0,VALID,82.7954,VALID,-0.0339617,VALID,20.4915,VALID,125,VALID,1.75368,
2002-01-05, 00:06:00,VALID,919.586,VALID,0,VALID,82.8641,VALID,-0.0339617,VALID,20.5114,VALID,112,VALID,1.34807,
2002-01-05, 00:07:00,VALID,919.567,VALID,0,VALID,83.107,VALID,-0.0679233,VALID,20.4657,VALID,123,VALID,1.34442,
2002-01-05, 00:08:00,VALID,919.561,VALID,0,VALID,83.0332,VALID,-0.0339617,VALID,20.4401,VALID,114,VALID,2.62218,
2002-01-05, 00:09:00,VALID,919.554,VALID,0,VALID,82.5691,VALID,-0.0169808,VALID,20.4724,VALID,120,VALID,1.74388,
2002-01-05, 00:10:00,VALID,919.535,VALID,0,VALID,82.9124,VALID,-0.0849042,VALID,20.5017,VALID,134,VALID,1.16491,
2002-01-05, 00:11:00,VALID,919.513,VALID,0,VALID,83.0955,VALID,-0.0679233,VALID,20.4557,VALID,151,VALID,1.93015,
2002-01-05, 00:12:00,VALID,919.515,VALID,0,VALID,83.1985,VALID,-0.0509425,VALID,20.4371,VALID,140,VALID,1.6268,
2002-01-05, 00:13:00,VALID,919.525,VALID,0,VALID,83.3702,VALID,-0.0509425,VALID,20.4043,VALID,124,VALID,1.69401,
2002-01-05, 00:14:00,VALID,919.544,VALID,0,VALID,83.4974,VALID,-0.0509425,VALID,20.3822,VALID,154,VALID,1.45818,
2002-01-05, 00:15:00,VALID,919.534,VALID,0,VALID,83.6411,VALID,-0.101885,VALID,20.3402,VALID,126,VALID,1.42817,
2002-01-05, 00:16:00,VALID,919.533,VALID,0,VALID,83.566,VALID,-0.0849042,VALID,20.3337,VALID,124,VALID,1.77105,
2002-01-05, 00:17:00,VALID,919.525,VALID,0,VALID,83.5088,VALID,-0.0509425,VALID,20.3561,VALID,152,VALID,1.44416,
2002-01-05, 00:18:00,VALID,919.526,VALID,0,VALID,83.5851,VALID,-0.0339617,VALID,20.3394,VALID,138,VALID,0.871199,
2002-01-05, 00:19:00,VALID,919.521,VALID,0,VALID,83.725,VALID,-0.0679233,VALID,20.313,VALID,144,VALID,1.21741,
2002-01-05, 00:20:00,VALID,919.52,VALID,0,VALID,83.9195,VALID,-0.0679233,VALID,20.2914,VALID,154,VALID,1.24361,
2002-01-05, 00:21:00,VALID,919.514,VALID,0,VALID,84.1535,VALID,-0.101885,VALID,20.2527,VALID,157,VALID,1.40752,
2002-01-05, 00:22:00,VALID,919.503,VALID,0,VALID,84.3493,VALID,0.0169808,VALID,20.2188,VALID,152,VALID,2.54624,
2002-01-05, 00:23:00,VALID,919.507,VALID,0,VALID,84.6189,VALID,0,VALID,20.1801,VALID,137,VALID,1.83357,
2002-01-05, 00:24:00,VALID,919.5,VALID,0,VALID,84.6685,VALID,0.0339617,VALID,20.1736,VALID,141,VALID,1.60764,
2002-01-05, 00:25:00,VALID,919.504,VALID,0,VALID,84.6533,VALID,0,VALID,20.1704,VALID,120,VALID,0.978733,
2002-01-05, 00:26:00,VALID,919.527,VALID,0,VALID,84.788,VALID,0.0169808,VALID,20.154,VALID,99,VALID,1.19945,
2002-01-05, 00:27:00,VALID,919.535,VALID,0,VALID,84.7486,VALID,0,VALID,20.144,VALID,103,VALID,0.986909,
2002-01-05, 00:28:00,VALID,919.531,VALID,0,VALID,84.7156,VALID,0,VALID,20.1572,VALID,128,VALID,1.18438,
2002-01-05, 00:29:00,VALID,919.543,VALID,0,VALID,84.5019,VALID,0.0169808,VALID,20.2029,VALID,134,VALID,1.34825,
2002-01-05, 00:30:00,VALID,919.531,VALID,0,VALID,84.2947,VALID,0.0509425,VALID,20.2126,VALID,139,VALID,2.34755,
2002-01-05, 00:31:00,VALID,919.505,VALID,0,VALID,84.2082,VALID,0.0679233,VALID,20.2215,VALID,161,VALID,1.00232,
2002-01-05, 00:32:00,VALID,919.497,VALID,0,VALID,84.3646,VALID,0.0339617,VALID,20.2153,VALID,125,VALID,0.831203,
2002-01-05, 00:33:00,VALID,919.489,VALID,0,VALID,84.8173,VALID,0.0169808,VALID,20.1607,VALID,121,VALID,1.14887,
2002-01-05, 00:34:00,VALID,919.477,VALID,0,VALID,85.0996,VALID,0.0339617,VALID,20.109,VALID,143,VALID,1.14345,
2002-01-05, 00:35:00,VALID,919.469,VALID,0,VALID,85.1543,VALID,0.0169808,VALID,20.0933,VALID,136,VALID,1.7346,
2002-01-05, 00:36:00,VALID,919.468,VALID,0,VALID,84.947,VALID,0.0339617,VALID,20.1217,VALID,138,VALID,1.1079,
2002-01-05, 00:37:00,VALID,919.476,VALID,0,VALID,84.9864,VALID,-0.0679233,VALID,20.1366,VALID,138,VALID,0.901786,
2002-01-05, 00:38:00,VALID,919.482,VALID,0,VALID,85.1975,VALID,-0.0849042,VALID,20.0911,VALID,127,VALID,1.10062,
2002-01-05, 00:39:00,VALID,919.481,VALID,0,VALID,85.3387,VALID,-0.101885,VALID,20.0755,VALID,140,VALID,1.08868,
2002-01-05, 00:40:00,VALID,919.469,VALID,0,VALID,85.3743,VALID,-0.101885,VALID,20.0524,VALID,139,VALID,1.50127,
2002-01-05, 00:41:00,VALID,919.474,VALID,0,VALID,85.2268,VALID,-0.0679233,VALID,20.062,VALID,145,VALID,1.48769,
2002-01-05, 00:42:00,VALID,919.459,VALID,0,VALID,85.0805,VALID,-0.0679233,VALID,20.0981,VALID,146,VALID,1.0625,
2002-01-05, 00:43:00,VALID,919.47,VALID,0,VALID,85.1848,VALID,-0.0509425,VALID,20.0876,VALID,146,VALID,1.28082,
2002-01-05, 00:44:00,VALID,919.463,VALID,0,VALID,85.4722,VALID,-0.0849042,VALID,20.026,VALID,141,VALID,1.23966,
2002-01-05, 00:45:00,VALID,919.457,VALID,0,VALID,85.9071,VALID,-0.0679233,VALID,19.9716,VALID,150,VALID,1.46157,
2002-01-05, 00:46:00,VALID,919.447,VALID,0,VALID,86.2377,VALID,-0.0679233,VALID,19.9226,VALID,147,VALID,1.77768,
2002-01-05, 00:47:00,VALID,919.443,VALID,0,VALID,86.2885,VALID,-0.0679233,VALID,19.9167,VALID,156,VALID,1.73674,
2002-01-05, 00:48:00,VALID,919.435,VALID,0,VALID,86.4055,VALID,-0.0509425,VALID,19.9072,VALID,155,VALID,1.86592,
2002-01-05, 00:49:00,VALID,919.439,VALID,0,VALID,86.4322,VALID,-0.0849042,VALID,19.8645,VALID,147,VALID,1.46875,
2002-01-05, 00:50:00,VALID,919.453,VALID,0,VALID,86.8264,VALID,-0.0679233,VALID,19.8493,VALID,156,VALID,1.81274,
2002-01-05, 00:51:00,VALID,919.432,VALID,0,VALID,86.773,VALID,-0.0339617,VALID,19.8523,VALID,133,VALID,1.48741,
2002-01-05, 00:52:00,VALID,919.436,VALID,0,VALID,86.7272,VALID,-0.0169808,VALID,19.8548,VALID,156,VALID,1.37326,
2002-01-05, 00:53:00,VALID,919.421,VALID,0,VALID,86.7222,VALID,-0.0169808,VALID,19.8548,VALID,152,VALID,1.41889,
2002-01-05, 00:54:00,VALID,919.422,VALID,0,VALID,86.6662,VALID,0,VALID,19.8647,VALID,144,VALID,1.61803,
2002-01-05, 00:55:00,VALID,919.427,VALID,0,VALID,86.6484,VALID,0,VALID,19.865,VALID,149,VALID,1.71183,
2002-01-05, 00:56:00,VALID,919.411,VALID,0,VALID,86.7094,VALID,0,VALID,19.8709,VALID,157,VALID,1.94081,
2002-01-05, 00:57:00,VALID,919.394,VALID,0,VALID,86.8175,VALID,0,VALID,19.8675,VALID,154,VALID,1.65435,
2002-01-05, 00:58:00,VALID,919.372,VALID,0,VALID,86.8709,VALID,0.0169808,VALID,19.8712,VALID,154,VALID,1.65013,
2002-01-05, 00:59:00,VALID,919.344,VALID,0,VALID,86.9752,VALID,0.0339617,VALID,19.8424,VALID,153,VALID,1.2867,
2002-01-05, 01:00:00,VALID,919.329,VALID,0,VALID,87.2092,VALID,0,VALID,19.8038,VALID,147,VALID,1.56576,
2002-01-05, 01:01:00,VALID,919.341,VALID,0,VALID,87.4851,VALID,-0.0169808,VALID,19.7417,VALID,145,VALID,1.72613,
2002-01-05, 01:02:00,VALID,919.343,VALID,0,VALID,87.7344,VALID,0,VALID,19.7194,VALID,156,VALID,1.48529,
2002-01-05, 01:03:00,VALID,919.314,VALID,0,VALID,87.7344,VALID,0,VALID,19.7069,VALID,153,VALID,1.72128,
2002-01-05, 01:04:00,VALID,919.336,VALID,0,VALID,87.7216,VALID,0,VALID,19.7099,VALID,141,VALID,1.05804,
2002-01-05, 01:05:00,VALID,919.339,VALID,0,VALID,87.8755,VALID,0,VALID,19.7034,VALID,143,VALID,1.63068,
2002-01-05, 01:06:00,VALID,919.356,VALID,0,VALID,87.8463,VALID,-0.0169808,VALID,19.6967,VALID,140,VALID,1.22593,
2002-01-05, 01:07:00,VALID,919.339,VALID,0,VALID,87.8552,VALID,0,VALID,19.6841,VALID,153,VALID,1.16829,
2002-01-05, 01:08:00,VALID,919.332,VALID,0,VALID,87.9226,VALID,0.0169808,VALID,19.6811,VALID,152,VALID,1.11529,
2002-01-05, 01:09:00,VALID,919.33,VALID,0,VALID,88.0815,VALID,-0.0339617,VALID,19.6649,VALID,133,VALID,0.876085,
2002-01-05, 01:10:00,VALID,919.303,VALID,0,VALID,88.0929,VALID,0,VALID,19.6523,VALID,152,VALID,1.09874,
2002-01-05, 01:11:00,VALID,919.281,VALID,0,VALID,87.9531,VALID,-0.0339617,VALID,19.652,VALID,159,VALID,0.824449,
2002-01-05, 01:12:00,VALID,919.279,VALID,0,VALID,87.9556,VALID,-0.0169808,VALID,19.6391,VALID,140,VALID,1.18264,
2002-01-05, 01:13:00,VALID,919.275,VALID,0,VALID,87.9861,VALID,-0.0169808,VALID,19.6128,VALID,156,VALID,1.25781,
2002-01-05, 01:14:00,VALID,919.275,VALID,0,VALID,88.1972,VALID,0,VALID,19.5809,VALID,149,VALID,1.11529,
2002-01-05, 01:15:00,VALID,919.256,VALID,0,VALID,88.3969,VALID,-0.0339617,VALID,19.5553,VALID,151,VALID,1.3372,
2002-01-05, 01:16:00,VALID,919.221,VALID,0,VALID,88.4693,VALID,0.0169808,VALID,19.5484,VALID,154,VALID,1.24282,
2002-01-05, 01:17:00,VALID,919.204,VALID,0,VALID,88.5215,VALID,0,VALID,19.5196,VALID,149,VALID,1.34233,
2002-01-05, 01:18:00,VALID,919.206,VALID,0,VALID,88.6817,VALID,-0.0169808,VALID,19.5034,VALID,150,VALID,1.34787,
2002-01-05, 01:19:00,VALID,919.182,VALID,0,VALID,88.7211,VALID,0,VALID,19.484,VALID,148,VALID,1.24848,
2002-01-05, 01:20:00,VALID,919.173,VALID,0,VALID,89.02,VALID,-0.0339617,VALID,19.4517,VALID,152,VALID,1.49357,
2002-01-05, 01:21:00,VALID,919.154,VALID,0,VALID,89.1001,VALID,0,VALID,19.4229,VALID,152,VALID,1.17441,
2002-01-05, 01:22:00,VALID,919.143,VALID,0,VALID,89.2387,VALID,-0.0339617,VALID,19.3906,VALID,150,VALID,1.12478,
2002-01-05, 01:23:00,VALID,919.123,VALID,0,VALID,89.3302,VALID,-0.0509425,VALID,19.3648,VALID,143,VALID,1.3608,
2002-01-05, 01:24:00,VALID,919.112,VALID,0,VALID,89.5502,VALID,0,VALID,19.3516,VALID,153,VALID,1.53294,
2002-01-05, 01:25:00,VALID,919.077,VALID,0,VALID,89.6646,VALID,-0.0339617,VALID,19.3357,VALID,150,VALID,1.56862,
2002-01-05, 01:26:00,VALID,919.06,VALID,0,VALID,89.6634,VALID,-0.0339617,VALID,19.3583,VALID,146,VALID,1.50971,
2002-01-05, 01:27:00,VALID,919.052,VALID,0,VALID,89.4612,VALID,-0.0169808,VALID,19.3936,VALID,151,VALID,1.39431,
2002-01-05, 01:28:00,VALID,919.037,VALID,0,VALID,89.3073,VALID,0,VALID,19.4294,VALID,150,VALID,1.36393,
2002-01-05, 01:29:00,VALID,919.026,VALID,0,VALID,89.2158,VALID,0,VALID,19.452,VALID,149,VALID,1.38879,
2002-01-05, 01:30:00,VALID,919.023,VALID,0,VALID,89.2183,VALID,-0.0339617,VALID,19.4229,VALID,154,VALID,1.26267,
2002-01-05, 01:31:00,VALID,918.996,VALID,0,VALID,89.4587,VALID,-0.0339617,VALID,19.4102,VALID,155,VALID,1.41138,
2002-01-05, 01:32:00,VALID,918.97,VALID,0,VALID,89.4815,VALID,-0.0339617,VALID,19.3908,VALID,143,VALID,1.08002,
2002-01-05, 01:33:00,VALID,918.962,VALID,0,VALID,89.6888,VALID,0,VALID,19.3615,VALID,138,VALID,0.989865,
2002-01-05, 01:34:00,VALID,918.953,VALID,0,VALID,89.8694,VALID,-0.0679233,VALID,19.3397,VALID,142,VALID,1.01415,
2002-01-05, 01:35:00,VALID,918.921,VALID,0,VALID,90.1034,VALID,0,VALID,19.3066,VALID,150,VALID,1.81984,
2002-01-05, 01:36:00,VALID,918.905,VALID,0,VALID,89.9419,VALID,-0.0339617,VALID,19.3168,VALID,150,VALID,1.22613,
2002-01-05, 01:37:00,VALID,918.882,VALID,0,VALID,90.0194,VALID,-0.0339617,VALID,19.3071,VALID,149,VALID,1.49479,
2002-01-05, 01:38:00,VALID,918.86,VALID,0,VALID,90.0995,VALID,-0.0509425,VALID,19.3002,VALID,144,VALID,1.54481,
2002-01-05, 01:39:00,VALID,918.851,VALID,0,VALID,90.0245,VALID,-0.0509425,VALID,19.2972,VALID,147,VALID,1.13556,
2002-01-05, 01:40:00,VALID,918.838,VALID,0,VALID,90.111,VALID,-0.0509425,VALID,19.2905,VALID,138,VALID,1.08683,
2002-01-05, 01:41:00,VALID,918.84,VALID,0,VALID,90.111,VALID,-0.0339617,VALID,19.278,VALID,125,VALID,1.08073,
2002-01-05, 01:42:00,VALID,918.83,VALID,0,VALID,90.4251,VALID,-0.0509425,VALID,19.2549,VALID,135,VALID,1.33024,
2002-01-05, 01:43:00,VALID,918.825,VALID,0,VALID,90.2496,VALID,0,VALID,19.2746,VALID,141,VALID,0.940034,
2002-01-05, 01:44:00,VALID,918.803,VALID,0,VALID,90.4035,VALID,-0.0169808,VALID,19.2646,VALID,150,VALID,2.04782,
2002-01-05, 01:45:00,VALID,918.807,VALID,0,VALID,90.4187,VALID,-0.0509425,VALID,19.281,VALID,153,VALID,2.19553,
2002-01-05, 01:46:00,VALID,918.778,VALID,0,VALID,90.364,VALID,-0.0169808,VALID,19.3002,VALID,152,VALID,2.09375,
2002-01-05, 01:47:00,VALID,918.757,VALID,0,VALID,90.2509,VALID,-0.0339617,VALID,19.3297,VALID,159,VALID,1.58249,
2002-01-05, 01:48:00,VALID,918.755,VALID,0,VALID,90.1987,VALID,-0.0339617,VALID,19.33,VALID,145,VALID,1.60262,
2002-01-05, 01:49:00,VALID,918.747,VALID,0,VALID,90.2165,VALID,0,VALID,19.3166,VALID,126,VALID,0.863498,
2002-01-05, 01:50:00,VALID,918.728,VALID,0,VALID,90.2648,VALID,-0.0339617,VALID,19.3101,VALID,139,VALID,0.90696,
2002-01-05, 01:51:00,VALID,918.709,VALID,0,VALID,90.3984,VALID,0,VALID,19.2838,VALID,153,VALID,1.18982,
2002-01-05, 01:52:00,VALID,918.685,VALID,0,VALID,90.6006,VALID,0,VALID,19.2612,VALID,143,VALID,1.28505,
2002-01-05, 01:53:00,VALID,918.686,VALID,0,VALID,90.6438,VALID,-0.0339617,VALID,19.2323,VALID,162,VALID,1.01065,
2002-01-05, 01:54:00,VALID,918.667,VALID,0,VALID,90.8498,VALID,0,VALID,19.2194,VALID,159,VALID,1.0447,
2002-01-05, 01:55:00,VALID,918.639,VALID,0,VALID,90.8943,VALID,-0.0339617,VALID,19.2162,VALID,150,VALID,1.00174,
2002-01-05, 01:56:00,VALID,918.629,VALID,0,VALID,90.7646,VALID,-0.0169808,VALID,19.2363,VALID,154,VALID,0.79136,
2002-01-05, 01:57:00,VALID,918.624,VALID,0,VALID,90.6285,VALID,0,VALID,19.2298,VALID,167,VALID,1.27449,
2002-01-05, 01:58:00,VALID,918.616,VALID,0,VALID,90.5026,VALID,0,VALID,19.2266,VALID,139,VALID,1.61853,
2002-01-05, 01:59:00,VALID,918.593,VALID,0,VALID,90.3526,VALID,-0.0169808,VALID,19.236,VALID,115,VALID,0.800663,
2002-01-05, 02:00:00,VALID,918.584,VALID,0,VALID,90.4124,VALID,-0.0169808,VALID,19.2395,VALID,143,VALID,1.15752,
2002-01-05, 02:01:00,VALID,918.558,VALID,0,VALID,90.5128,VALID,-0.0169808,VALID,19.2229,VALID,143,VALID,0.690456,
2002-01-05, 02:02:00,VALID,918.553,VALID,0,VALID,90.659,VALID,-0.0169808,VALID,19.2236,VALID,127,VALID,0.861032,
2002-01-05, 02:03:00,VALID,918.543,VALID,0,VALID,90.5917,VALID,-0.0339617,VALID,19.201,VALID,124,VALID,0.722005,
2002-01-05, 02:04:00,VALID,918.511,VALID,0,VALID,90.8511,VALID,-0.0339617,VALID,19.1883,VALID,144,VALID,1.18859,
2002-01-05, 02:05:00,VALID,918.499,VALID,0,VALID,90.7442,VALID,0,VALID,19.1712,VALID,158,VALID,1.16567,
2002-01-05, 02:06:00,VALID,918.472,VALID,0,VALID,90.5484,VALID,0,VALID,19.1836,VALID,150,VALID,1.31567,
2002-01-05, 02:07:00,VALID,918.461,VALID,0,VALID,90.6196,VALID,-0.0169808,VALID,19.1911,VALID,145,VALID,1.5096,
2002-01-05, 02:08:00,VALID,918.448,VALID,0,VALID,90.4505,VALID,-0.0169808,VALID,19.2003,VALID,158,VALID,1.32836,
2002-01-05, 02:09:00,VALID,918.441,VALID,0,VALID,90.3971,VALID,0,VALID,19.2072,VALID,149,VALID,1.53273,
2002-01-05, 02:10:00,VALID,918.432,VALID,0,VALID,90.3259,VALID,-0.0169808,VALID,19.2236,VALID,140,VALID,1.15541,
2002-01-05, 02:11:00,VALID,918.438,VALID,0,VALID,90.242,VALID,-0.0169808,VALID,19.2169,VALID,144,VALID,1.12334,
2002-01-05, 02:12:00,VALID,918.422,VALID,0,VALID,90.3958,VALID,-0.0509425,VALID,19.2331,VALID,144,VALID,1.41254,
2002-01-05, 02:13:00,VALID,918.392,VALID,0,VALID,90.1822,VALID,-0.0339617,VALID,19.2594,VALID,151,VALID,1.15169,
2002-01-05, 02:14:00,VALID,918.375,VALID,0,VALID,90.158,VALID,-0.0509425,VALID,19.2686,VALID,144,VALID,1.07422,
2002-01-05, 02:15:00,VALID,918.37,VALID,0,VALID,90.0207,VALID,-0.0339617,VALID,19.2919,VALID,155,VALID,1.23649,
2002-01-05, 02:16:00,VALID,918.364,VALID,0,VALID,90.0932,VALID,-0.0169808,VALID,19.2584,VALID,149,VALID,1.25156,
2002-01-05, 02:17:00,VALID,918.382,VALID,0,VALID,89.9622,VALID,0,VALID,19.2686,VALID,158,VALID,0.607718,
2002-01-05, 02:18:00,VALID,918.379,VALID,0,VALID,90.1021,VALID,-0.0339617,VALID,19.249,VALID,143,VALID,1.18581,
2002-01-05, 02:19:00,VALID,918.359,VALID,0,VALID,90.0856,VALID,-0.0339617,VALID,19.2562,VALID,143,VALID,1.05384,
2002-01-05, 02:20:00,VALID,918.371,VALID,0,VALID,90.2394,VALID,-0.0169808,VALID,19.2524,VALID,140,VALID,1.25639,
2002-01-05, 02:21:00,VALID,918.36,VALID,0,VALID,90.1708,VALID,-0.0339617,VALID,19.2557,VALID,110,VALID,1.20768,
2002-01-05, 02:22:00,VALID,918.353,VALID,0,VALID,90.1529,VALID,0,VALID,19.2557,VALID,121,VALID,1.15755,
2002-01-05, 02:23:00,VALID,918.339,VALID,0,VALID,90.139,VALID,-0.0169808,VALID,19.2363,VALID,152,VALID,1.0818,
2002-01-05, 02:24:00,VALID,918.303,VALID,0,VALID,90.3551,VALID,0,VALID,19.204,VALID,131,VALID,0.955448,
2002-01-05, 02:25:00,VALID,918.276,VALID,0,VALID,90.5408,VALID,-0.0339617,VALID,19.1744,VALID,113,VALID,1.16562,
2002-01-05, 02:26:00,VALID,918.252,VALID,0,VALID,90.6756,VALID,0,VALID,19.1493,VALID,131,VALID,1.38518,
2002-01-05, 02:27:00,VALID,918.22,VALID,0,VALID,90.8066,VALID,-0.0169808,VALID,19.1491,VALID,148,VALID,1.41913,
2002-01-05, 02:28:00,VALID,918.194,VALID,0,VALID,90.8307,VALID,0,VALID,19.1655,VALID,153,VALID,1.73395,
2002-01-05, 02:29:00,VALID,918.188,VALID,0,VALID,90.6514,VALID,0,VALID,19.1779,VALID,156,VALID,1.68774,
2002-01-05, 02:30:00,VALID,918.185,VALID,0,VALID,90.5599,VALID,0,VALID,19.1846,VALID,153,VALID,1.92622,
2002-01-05, 02:31:00,VALID,918.172,VALID,0,VALID,90.5522,VALID,0,VALID,19.2042,VALID,150,VALID,1.86784,
2002-01-05, 02:32:00,VALID,918.154,VALID,0,VALID,90.1809,VALID,-0.0339617,VALID,19.236,VALID,152,VALID,1.55951,
2002-01-05, 02:33:00,VALID,918.14,VALID,0,VALID,90.1275,VALID,-0.0169808,VALID,19.2591,VALID,152,VALID,1.18729,
2002-01-05, 02:34:00,VALID,918.124,VALID,0,VALID,90.2928,VALID,-0.0169808,VALID,19.2226,VALID,163,VALID,1.15848,
2002-01-05, 02:35:00,VALID,918.117,VALID,0,VALID,90.4708,VALID,-0.0169808,VALID,19.2171,VALID,157,VALID,1.29616,
2002-01-05, 02:36:00,VALID,918.113,VALID,0,VALID,90.5624,VALID,0,VALID,19.1973,VALID,160,VALID,1.42293,
2002-01-05, 02:37:00,VALID,918.106,VALID,0,VALID,90.551,VALID,-0.0339617,VALID,19.195,VALID,168,VALID,1.19067,
2002-01-05, 02:38:00,VALID,918.094,VALID,0,VALID,90.537,VALID,0,VALID,19.1749,VALID,167,VALID,1.433,
2002-01-05, 02:39:00,VALID,918.087,VALID,0,VALID,90.4225,VALID,-0.0509425,VALID,19.1523,VALID,173,VALID,1.14345,
2002-01-05, 02:40:00,VALID,918.079,VALID,0,VALID,90.4187,VALID,-0.0509425,VALID,19.1168,VALID,164,VALID,0.956814,
2002-01-05, 02:41:00,VALID,918.062,VALID,0,VALID,90.4505,VALID,-0.0509425,VALID,19.0716,VALID,164,VALID,1.11466,
2002-01-05, 02:42:00,VALID,918.051,VALID,0,VALID,90.8561,VALID,-0.0169808,VALID,19.0201,VALID,148,VALID,1.37268,
2002-01-05, 02:43:00,VALID,918.057,VALID,0,VALID,90.8193,VALID,-0.0339617,VALID,19.0395,VALID,136,VALID,1.44732,
2002-01-05, 02:44:00,VALID,918.05,VALID,0,VALID,90.3144,VALID,-0.0509425,VALID,19.0815,VALID,131,VALID,0.928504,
2002-01-05, 02:45:00,VALID,918.055,VALID,0,VALID,90.3589,VALID,-0.0169808,VALID,19.0877,VALID,135,VALID,1.16153,
2002-01-05, 02:46:00,VALID,918.043,VALID,0,VALID,90.3144,VALID,-0.0339617,VALID,19.081,VALID,132,VALID,1.25021,
2002-01-05, 02:47:00,VALID,918.044,VALID,0,VALID,90.5624,VALID,-0.0509425,VALID,19.0688,VALID,151,VALID,0.942945,
2002-01-05, 02:48:00,VALID,918.025,VALID,0,VALID,90.8561,VALID,-0.0849042,VALID,19.039,VALID,164,VALID,1.00955,
2002-01-05, 02:49:00,VALID,918.017,VALID,0,VALID,90.7468,VALID,-0.0509425,VALID,19.0393,VALID,163,VALID,1.17253,
2002-01-05, 02:50:00,VALID,918.026,VALID,0,VALID,90.5815,VALID,-0.0679233,VALID,19.033,VALID,125,VALID,1.01861,
2002-01-05, 02:51:00,VALID,918.018,VALID,0,VALID,90.6489,VALID,-0.0509425,VALID,19.0077,VALID,134,VALID,0.859164,
2002-01-05, 02:52:00,VALID,917.984,VALID,0,VALID,90.7875,VALID,-0.0339617,VALID,18.9975,VALID,146,VALID,1.86295,
2002-01-05, 02:53:00,VALID,917.981,VALID,0,VALID,90.5891,VALID,-0.0679233,VALID,19.0328,VALID,150,VALID,1.95218,
2002-01-05, 02:54:00,VALID,917.985,VALID,0,VALID,90.069,VALID,-0.0679233,VALID,19.1466,VALID,154,VALID,1.79033,
2002-01-05, 02:55:00,VALID,917.973,VALID,0,VALID,89.7333,VALID,-0.0679233,VALID,19.2037,VALID,157,VALID,1.41153,
2002-01-05, 02:56:00,VALID,917.963,VALID,0,VALID,89.61,VALID,-0.0339617,VALID,19.2363,VALID,140,VALID,1.4678,
2002-01-05, 02:57:00,VALID,917.962,VALID,0,VALID,89.5642,VALID,-0.0509425,VALID,19.2497,VALID,149,VALID,1.08898,
2002-01-05, 02:58:00,VALID,917.961,VALID,0,VALID,89.5871,VALID,-0.0509425,VALID,19.2529,VALID,161,VALID,1.34744,
2002-01-05, 02:59:00,VALID,917.95,VALID,0,VALID,89.4714,VALID,-0.0849042,VALID,19.2691,VALID,152,VALID,1.2114,
2002-01-05, 03:00:00,VALID,917.942,VALID,0,VALID,89.4383,VALID,-0.0509425,VALID,19.2688,VALID,149,VALID,1.26774,
2002-01-05, 03:01:00,VALID,917.937,VALID,0,VALID,89.0759,VALID,-0.0509425,VALID,19.3041,VALID,157,VALID,1.76496,
2002-01-05, 03:02:00,VALID,917.935,VALID,0,VALID,88.7415,VALID,-0.0509425,VALID,19.3724,VALID,150,VALID,2.07836,
2002-01-05, 03:03:00,VALID,917.919,VALID,0,VALID,88.5291,VALID,-0.0339617,VALID,19.4142,VALID,158,VALID,1.44447,
2002-01-05, 03:04:00,VALID,917.918,VALID,0,VALID,88.5062,VALID,-0.0509425,VALID,19.4274,VALID,150,VALID,1.48522,
2002-01-05, 03:05:00,VALID,917.935,VALID,0,VALID,88.6118,VALID,0,VALID,19.3883,VALID,154,VALID,1.15578,
2002-01-05, 03:06:00,VALID,917.936,VALID,0,VALID,88.9653,VALID,-0.0169808,VALID,19.3401,VALID,151,VALID,1.52886,
2002-01-05, 03:07:00,VALID,917.942,VALID,0,VALID,89.3658,VALID,-0.0509425,VALID,19.2713,VALID,146,VALID,1.3214,
2002-01-05, 03:08:00,VALID,917.941,VALID,0,VALID,89.5909,VALID,-0.0169808,VALID,19.2266,VALID,145,VALID,1.09926,
2002-01-05, 03:09:00,VALID,917.936,VALID,0,VALID,89.7715,VALID,-0.0849042,VALID,19.1781,VALID,128,VALID,0.992821,
2002-01-05, 03:10:00,VALID,917.931,VALID,0,VALID,89.8834,VALID,-0.0679233,VALID,19.1431,VALID,145,VALID,1.51205,
2002-01-05, 03:11:00,VALID,917.943,VALID,0,VALID,90.083,VALID,-0.0339617,VALID,19.1235,VALID,160,VALID,1.7474,
2002-01-05, 03:12:00,VALID,917.938,VALID,0,VALID,89.863,VALID,-0.0509425,VALID,19.1297,VALID,150,VALID,1.79139,
2002-01-05, 03:13:00,VALID,917.928,VALID,0,VALID,89.6252,VALID,-0.0679233,VALID,19.1689,VALID,148,VALID,2.24852,
2002-01-05, 03:14:00,VALID,917.914,VALID,0,VALID,89.1535,VALID,-0.0169808,VALID,19.2368,VALID,155,VALID,1.48982,
2002-01-05, 03:15:00,VALID,917.911,VALID,0,VALID,88.9106,VALID,-0.0509425,VALID,19.285,VALID,155,VALID,1.50109,
2002-01-05, 03:16:00,VALID,917.911,VALID,0,VALID,88.8317,VALID,-0.0339617,VALID,19.278,VALID,127,VALID,1.23589,
2002-01-05, 03:17:00,VALID,917.899,VALID,0,VALID,89.0797,VALID,-0.0679233,VALID,19.2527,VALID,156,VALID,1.80124,
2002-01-05, 03:18:00,VALID,917.906,VALID,0,VALID,89.3099,VALID,-0.0509425,VALID,19.2012,VALID,144,VALID,1.94151,
2002-01-05, 03:19:00,VALID,917.92,VALID,0,VALID,89.4548,VALID,-0.0339617,VALID,19.1719,VALID,139,VALID,1.6933,
2002-01-05, 03:20:00,VALID,917.903,VALID,0,VALID,89.6189,VALID,-0.0169808,VALID,19.1461,VALID,150,VALID,1.65341,
2002-01-05, 03:21:00,VALID,917.908,VALID,0,VALID,89.76,VALID,-0.0169808,VALID,19.1205,VALID,149,VALID,2.27893,
2002-01-05, 03:22:00,VALID,917.915,VALID,0,VALID,89.7651,VALID,-0.0849042,VALID,19.1103,VALID,145,VALID,1.43391,
2002-01-05, 03:23:00,VALID,917.914,VALID,0,VALID,89.7333,VALID,-0.0679233,VALID,19.1168,VALID,150,VALID,1.8331,
2002-01-05, 03:24:00,VALID,917.908,VALID,0,VALID,89.5337,VALID,-0.0169808,VALID,19.1431,VALID,147,VALID,2.28516,
2002-01-05, 03:25:00,VALID,917.924,VALID,0,VALID,88.9691,VALID,-0.0509425,VALID,19.2298,VALID,149,VALID,2.38911,
2002-01-05, 03:26:00,VALID,917.94,VALID,0,VALID,88.6626,VALID,-0.0169808,VALID,19.3076,VALID,145,VALID,2.33456,
2002-01-05, 03:27:00,VALID,917.964,VALID,0,VALID,88.6855,VALID,-0.0679233,VALID,19.3203,VALID,144,VALID,1.93961,
2002-01-05, 03:28:00,VALID,917.981,VALID,0,VALID,88.8216,VALID,-0.0679233,VALID,19.3046,VALID,111,VALID,1.05156,
2002-01-05, 03:29:00,VALID,917.997,VALID,0,VALID,89.1166,VALID,-0.0509425,VALID,19.2529,VALID,142,VALID,1.75355,
2002-01-05, 03:30:00,VALID,918.001,VALID,0,VALID,89.1217,VALID,-0.0509425,VALID,19.2626,VALID,144,VALID,1.69215,
2002-01-05, 03:31:00,VALID,917.988,VALID,0,VALID,89.0873,VALID,-0.0339617,VALID,19.2624,VALID,129,VALID,1.06018,
2002-01-05, 03:32:00,VALID,917.996,VALID,0,VALID,89.2094,VALID,-0.0169808,VALID,19.2365,VALID,130,VALID,0.941998,